Location: Ellerstadt
(49.4644°N, 8.2615°E)
Time: 02:03:35
(UTC+00:00)

ISS - Pass Details

Date: 18 May 2021
Orbit: 417 x 422 km, 51.6° (Epoch: 15 June)

Event Time Altitude Azimuth Distance (km) Brightness Sun altitude
Rises 00:53:02 0° 289° (WNW) 2,374 0.0 -18.2°
Reaches altitude 10° 00:55:11 10° 283° (WNW) 1,508 -1.1 -18.0°
Enters shadow 00:55:28 12° 281° (WNW) 1,398 -1.2 -18.0°
